Regional Weather Roundup
Issued by NWS Sioux Falls, SD

Home | Current Version | Previous Version | Graphics & Text | Print | Product List | Glossary Off
Versions: 1 2 3 4 5 6 7 8 9 10 11 12 13 14 15 16 17 18 19 20 21 22 23 24 25 26 27 28 29 30 31 32 33 34 35 36 37 38 39 40 41 42 43 44 45 46 47 48 49 50

000
ASUS43 KFSD 230010
RWRFSD

WEATHER ROUNDUP FOR SE SOUTH DAKOTA/SW MINNESOTA/NW IOWA
NATIONAL WEATHER SERVICE SIOUX FALLS SD
700 PM CDT FRI SEP 22 2017

NOTE: "FAIR" INDICATES FEW OR NO CLOUDS BELOW 12,000 FEET WITH NO
SIGNIFICANT WEATHER AND OR OBSTRUCTIONS TO VISIBILITY.


SDZ038>040-050-052>070-230100-
SOUTHEAST SOUTH DAKOTA

CITY           SKY/WX    TMP DP  RH WIND       PRES   REMARKS
BROOKINGS      CLOUDY    75  63  64 S12       29.74R
CHAMBERLAIN    PTCLDY    69  55  61 W17       29.78R
6HR MIN TEMP:  69; 6HR MAX TEMP:  78;

HURON          PTCLDY    75  57  53 NW18G24   29.72R
6HR MIN TEMP:  75; 6HR MAX TEMP:  90;

MADISON        FAIR      75  73  94 S9G20     29.75S
MITCHELL       TSTM      75  60  59 S7        29.78R
6HR MIN TEMP:  76; 6HR MAX TEMP:  94; 6HR PCP: TRACE;

SIOUX FALLS    MOCLDY    88  69  53 S15G23    29.73R
6HR MIN TEMP:  88; 6HR MAX TEMP:  91;

WINNER         FAIR      66  52  60 NW17      29.80R
YANKTON        MOCLDY    88  67  49 S14       29.69R
$$

MNZ071-072-080-081-089-090-097-098-230100-
SOUTHWEST MINNESOTA

CITY           SKY/WX    TMP DP  RH WIND       PRES   REMARKS
FAIRMONT       CLEAR     86  66  51 S16       29.81R
JACKSON        CLEAR     84  66  54 S13       29.83R
LUVERNE        CLOUDY    84  64  51 S13       29.76R
MARSHALL       CLOUDY    86  70  58 S14       29.74R
6HR MIN TEMP:  86; 6HR MAX TEMP:  93;

MONTEVIDEO     PTCLDY    88  70  55 SW13G18   29.71R
PIPESTONE      CLOUDY    84  70  61 S9        29.77S
REDWOOD FALLS  PTCLDY    88  68  51 S16       29.75R
TRACY          CLOUDY    87  71  59 S10       29.76R
WINDOM         CLEAR     88  66  48 S14G21    29.79R
WORTHINGTON    CLEAR     85  69  58 S14G21    29.80R
$$

IAZ001>003-012>014-020>022-031-032-NEZ013-014-SDZ071-230100-
NORTHWEST IOWA

CITY           SKY/WX    TMP DP  RH WIND       PRES   REMARKS
CHEROKEE       PTCLDY    85  67  55 S15G21    29.80S
DENISON        CLEAR     86  68  54 S13G20    29.85S
ESTHERVILLE    CLEAR     84  68  58 S15G24    29.81R
LE MARS        PTCLDY    88  70  55 SE17G24   29.76R
ORANGE CITY    PTCLDY    88  70  55 S15       29.78R
SHELDON        PTCLDY    86  70  58 S16G24    29.77R
SIOUX CITY     PTCLDY    88  70  55 S18G28    29.76R
6HR MIN TEMP:  88; 6HR MAX TEMP:  94;

SPENCER        CLEAR     86  67  52 S20G26    29.80S
6HR MIN TEMP:  86; 6HR MAX TEMP:  94;

STORM LAKE     CLEAR     84  68  58 S15G24    29.84R
$$

ABBREVIATIONS USED IN REMARKS
   TC - TEMPERATURE IN CELSIUS
  WCI - WIND CHILL INDEX
   HX - HEAT INDEX
  VSB - VISIBILITY





USA.gov is the U.S. government's official web portal to all federal, state and local government web resources and services.